Location: Date Creek
(34.2167°N, 113.0301°W)
Time: 14:40:58
(UTC-07:00)

N. Korean satellite - Visible Passes

Search period start: 18 November 2017 00:00
Search period end: 28 November 2017 00:00
Orbit: 460 x 515 km, 97.2° (Epoch: 17 November)

Date Brightness Start Highest point End Pass type
(mag) Time Alt. Az. Time Alt. Az. Time Alt. Az.
18 Nov 10.2 06:16:37 10° ENE 06:18:13 12° E 06:19:50 10° ESE visible
18 Nov 6.7 18:20:51 10° SSE 18:24:11 47° ENE 18:27:35 10° N visible
19 Nov 7.7 17:58:05 10° SE 18:00:50 22° ENE 18:03:37 10° NNE visible
19 Nov 9.7 19:32:12 10° SW 19:34:18 15° W 19:36:25 10° WNW visible
20 Nov 8.4 19:07:35 10° SSW 19:10:42 31° W 19:13:54 10° NNW visible
21 Nov 9.4 06:38:18 10° NE 06:41:26 25° E 06:44:33 10° SSE visible
21 Nov 6.7 18:43:44 10° S 18:47:11 74° W 18:50:44 10° NNW visible
22 Nov 10.2 06:16:12 10° ENE 06:17:50 12° E 06:19:27 10° ESE visible
22 Nov 6.7 18:20:24 10° SSE 18:23:45 47° ENE 18:27:10 10° N visible
23 Nov 7.7 17:57:36 10° SE 18:00:23 22° ENE 18:03:11 10° NNE visible
23 Nov 9.7 19:31:41 10° SW 19:33:50 15° W 19:36:01 10° NW visible
24 Nov 8.4 19:07:04 10° SSW 19:10:14 32° W 19:13:28 10° NNW visible
25 Nov 9.4 06:37:51 10° NE 06:40:59 25° E 06:44:06 10° SSE visible
25 Nov 6.7 18:43:12 10° S 18:46:41 74° W 18:50:16 10° NNW visible
26 Nov 10.1 06:15:44 10° ENE 06:17:22 12° E 06:18:58 10° ESE visible
26 Nov 6.7 18:19:51 10° SSE 18:23:13 47° ENE 18:26:42 10° N visible
27 Nov 7.7 17:57:02 10° SE 17:59:51 22° ENE 18:02:42 10° NNE visible
27 Nov 9.6 19:31:05 10° SW 19:33:18 16° W 19:35:33 10° NW visible
